Location: Gleizolles
(44.4833°N, 6.7667°E)
Time: 07:12:29
(UTC+00:00)

CUTE 1.7 + AOD 2 - Visible Passes

Search period start: 09 May 2021 00:00
Search period end: 19 May 2021 00:00
Orbit: 592 x 612 km, 97.6° (Epoch: 08 May)

Date Brightness Start Highest point End Pass type
(mag) Time Alt. Az. Time Alt. Az. Time Alt. Az.
11 May ? 02:52:51 10° ENE 02:54:59 14° E 02:57:07 10° ESE visible
12 May ? 03:03:54 10° NE 03:06:48 18° E 03:09:42 10° SE visible
13 May ? 03:15:11 10° NE 03:18:36 24° E 03:21:59 10° SSE visible
14 May ? 03:26:37 10° NNE 03:30:23 31° E 03:34:07 10° SSE visible
